www.pogodaiklimat.ru

Погода и климат >> Архив погоды >> Саудовская Аравия >> Al-Wajh


ПОГОДА в Al-Wajh

  • Прогноз погоды в Al-Wajh
  • Монитор погоды в Al-Wajh
  • Климат города

АРХИВ ПОГОДЫ в Al-Wajh

Время (UTC), дата Ветер
(напр.,м/с)
 
Видим.   Явления Облачность Т
(С)
Тd
(С)
f
(%)
Тe
(С)
Тes
(С)
Комфортность P
(гПа)
Po
(гПа)
Тmin
(С)
Tmax
(С)
R
(мм)
R24
(мм)
S
(см)
09 11.08 СЗ 6 10 км ясно +34.6 +26.0 61 +50 +59 опасность
перегрева
1005.0 1002.3
12 11.08 СЗ 6 10 км ясно +34.4 +27.0 65 +52 +58 опасность
перегрева
1003.8 1001.1
15 11.08 СЗ 7 10 км ясно +33.8 +29.0 76 +57 +58 опасность
перегрева
1003.7 1001.0
18 11.08 СЗ 2 10 км ясно +34.2 +29.3 76 +41 +41 опасность
перегрева
1004.0 1001.4 +35.6
21 11.08 СЗ 5 10 км ясно +31.4 +28.0 82 +52 +52 опасность
перегрева
1004.9 1002.2
00 12.08 С 2 10 км ясно +29.6 +25.0 76 +42 +42 опасность
перегрева
1004.3 1001.6
03 12.08 СВ 2 10 км ясно +27.4 +21.0 68 +34 +34 очень
душно
1004.5 1001.8
06 12.08 СЗ 3 10 км ясно +32.2 +27.0 74 +50 +58 опасность
перегрева
1005.7 1003.0 +27.0
09 12.08 СЗ 6 10 км ясно +34.6 +29.0 73 +58 +66 опасность
перегрева
1006.3 1003.6
12 12.08 СЗ 9 10 км ясно +35.6 +27.0 61 +53 +55 опасность
перегрева
1005.7 1003.0
15 12.08 СЗ 7 10 км ясно +34.8 +25.0 57 +48 +49 опасность
перегрева
1005.1 1002.4
18 12.08 С 6 10 км ясно +35.6 +18.0 35 +39 +39 очень
душно
1005.2 1002.6 +36.2
21 12.08 З 2 10 км ясно +32.0 +23.0 59 +42 +42 опасность
перегрева
1005.2 1002.6
00 13.08 С 2 10 км ясно +30.0 +25.0 75 +43 +43 опасность
перегрева
1004.9 1002.2
03 13.08 С 2 10 км ясно +28.2 +24.0 78 +39 +39 очень
душно
1004.9 1002.2
06 13.08 СЗ 8 10 км ясно +33.2 +26.0 66 +49 +51 опасность
перегрева
1005.8 1003.2 +27.6
09 13.08 СЗ 9 10 км ясно +35.2 +28.0 66 +56 +58 опасность
перегрева
1005.7 1003.1
12 13.08 СЗ 11 10 км ясно +35.2 +26.0 59 +51 +51 опасность
перегрева
1004.7 1002.0
15 13.08 СЗ 7 10 км ясно +33.8 +26.0 64 +50 +50 опасность
перегрева
1003.1 1000.4
18 13.08 СЗ 3 10 км ясно +31.8 +24.0 63 +43 +43 опасность
перегрева
1003.4 1000.7 +36.2
21 13.08 З 2 10 км ясно +30.0 +25.0 75 +43 +43 опасность
перегрева
1004.0 1001.3
00 14.08 штиль 0 10 км ясно +28.6 +25.0 81 +41 +41 опасность
перегрева
1003.3 1000.6
03 14.08 ЮВ 2 10 км ясно +27.6 +24.0 81 +38 +38 очень
душно
1003.8 1001.1
06 14.08 С 5 10 км ясно +32.8 +23.0 56 +43 +47 опасность
перегрева
1005.0 1002.3 +26.6
09 14.08 СЗ 8 10 км ясно +34.6 +24.0 54 +46 +51 опасность
перегрева
1004.8 1002.1
12 14.08 СЗ 10 10 км ясно +35.2 +24.0 52 +47 +47 опасность
перегрева
1003.4 1000.7
15 14.08 СЗ 9 10 км ясно +33.0 +25.0 63 +47 +47 опасность
перегрева
1002.9 1000.2
18 14.08 С 4 10 км ясно +30.6 +24.0 68 +42 +42 опасность
перегрева
1003.6 1000.9 +36.0
21 14.08 СВ 2 10 км ясно +29.6 +25.2 77 +33 +33 душно 1003.8 1001.1 0.0 0.0
00 15.08 СЗ 4 10 км ясно +29.2 +26.0 83 +44 +44 опасность
перегрева
1002.6 999.9
03 15.08 В 2 10 км ясно +26.8 +24.0 85 +37 +37 очень
душно
1003.0 1000.3
06 15.08 З 2 10 км ясно +31.6 +27.0 77 +50 +58 опасность
перегрева
1004.0 1001.3 +26.2
09 15.08 З 4 10 км ясно +33.8 +27.0 68 +52 +67 опасность
перегрева
1004.5 1001.8
12 15.08 СЗ 8 10 км ясно +34.8 +27.0 64 +53 +56 опасность
перегрева
1003.6 1000.9
15 15.08 СЗ 6 10 км ясно +33.0 +27.0 71 +51 +52 опасность
перегрева
1003.4 1000.7
18 15.08 С 2 10 км ясно +30.2 +25.0 74 +44 +44 опасность
перегрева
1004.0 1001.3 +35.4
21 15.08 З 4 10 км ясно +29.5 +26.0 81 +44 +44 опасность
перегрева
1004.7 1002.0
00 16.08 СЗ 5 10 км ясно +29.4 +26.0 82 +44 +44 опасность
перегрева
1004.0 1001.3
03 16.08 СВ 3 8000 м дымка ясно +26.8 +25.0 90 +39 +39 очень
душно
1004.5 1001.8
06 16.08 штиль 0 10 км ясно +30.8 +27.0 80 +48 +60 опасность
перегрева
1006.3 1003.6 +26.2
09 16.08 ЮЗ 5 10 км ясно +32.4 +26.0 69 +48 +60 опасность
перегрева
1006.4 1003.7
12 16.08 ЮЗ 4 10 км ясно +33.6 +25.0 61 +47 +57 опасность
перегрева
1005.3 1002.6
15 16.08 З 4 10 км ясно +32.4 +26.0 69 +48 +49 опасность
перегрева
1004.8 1002.1
18 16.08 ЮЗ 2 10 км ясно +30.5 +27.0 82 +48 +48 опасность
перегрева
1005.5 1002.8 +33.6
21 16.08 СЗ 2 10 км 1/1 1200 м
[Sc]
+29.3 +26.0 82 +44 +44 опасность
перегрева
1005.9 1003.2
00 17.08 штиль 0 9000 м дымка ясно +28.1 +26.0 88 +42 +42 опасность
перегрева
1005.5 1002.8
03 17.08 СВ 2 8000 м дымка ясно +26.4 +25.0 92 +38 +38 очень
душно
1006.0 1003.3
06 17.08 СЗ 2 10 км ясно +31.0 +23.0 62 +41 +50 опасность
перегрева
1006.8 1004.1 +26.0
09 17.08 З 5 10 км ясно +33.2 +25.0 62 +47 +59 опасность
перегрева
1006.3 1003.6
12 17.08 З 5 10 км ясно +34.2 +26.0 62 +50 +57 опасность
перегрева
1005.0 1002.3
15 17.08 З 5 10 км ясно +32.8 +27.0 72 +51 +52 опасность
перегрева
1004.3 1001.6
18 17.08 З 2 10 км ясно +30.2 +27.0 83 +47 +47 опасность
перегрева
1004.2 1001.5 +35.0
21 17.08 СЗ 3 9000 м дымка ясно +29.9 +28.0 90 +50 +50 опасность
перегрева
1004.4 1001.7
00 18.08 СЗ 4 9000 м дымка ясно +29.8 +27.0 85 +47 +47 опасность
перегрева
1003.2 1000.5
03 18.08 С 3 10 км ясно +28.0 +24.0 79 +39 +39 очень
душно
1003.4 1000.7

 

Местоположение метеостанции Al-Wajh (Саудовская Аравия): широта 26.20 долгота 36.48 высота над уровнем моря 24 м.

В архиве по умолчанию представлена погода в Al-Wajh за последнюю неделю. Архивные данные за месяц целиком и за предыдущие месяцы, начиная с января 2011 года, Вы можете получить, выбрав интересующий диапазон дат из раскрывающегося списка и нажав кнопку "Ввод!".


*Определитесь, кто Вы:
робот инопланетянин человек

Внимание! Время в таблицах - всемирное. Для получения местного времени необходимо прибавить поправку, которая в Al-Wajh равна 3 ч.

Смотрите также архив погоды в соседних городах и на ближайших метеорологических станциях:

Погода в Al-Ula (Саудовская Аравия) (166 км)
Погода в Kosseir (Египет) (233 км)
Погода в Tabuk (Саудовская Аравия) (243 км)
Погода в Yanbu (Саудовская Аравия) (280 км)
Погода в Hurghada (Египет) (294 км)
Погода в Shalatin (Египет) (353 км)
Погода в El Tor (Египет) (362 км)
Погода в Madinah (Саудовская Аравия) (372 км)
Погода в South Of Valley University (Египет) (372 км)
Погода в Luxor (Египет) (383 км)

Пояснения к столбцам:

Ветер - указаны скорость ветра в м/с - средняя за 10 мин, порывы в срок и между сроками (в фигурных скобках) и направление, откуда дует ветер: С - северный, СВ - северо-восточный, В - восточный, ЮВ - юго-восточный, Ю - южный, ЮЗ - юго-западный, З - западный, СЗ - северо-западный.
Видимость - горизонтальная дальность видимости в метрах или километрах. При видимости от 1 до 10 км при отсутствии осадков обычно наблюдается дымка, при ухудшении видимости до 1 км и менее - туман. В сухую погоду видимость может ухудшаться дымом, пылью или мглою.
Явления - указаны атмосферные явления, наблюдавшиеся в срок или в последний час перед сроком; фигурными скобками обозначены явления, наблюдавшиеся между сроками (за 1-3 часа до срока); квадратными скобками обозначены град или гололедные отложения с указанием их диаметра в мм.
Облачность - указаны через наклонную черту общая и нижняя облачность в баллах и высота нижней границы облаков в метрах; квадратными скобками обозначены формы облаков: Ci - перистые, Cs - перисто-слоистые, Cc - перисто-кучевые, Ac - высококучевые, As - высокослоистые, Sc - слоисто-кучевые, Ns - слоисто-дождевые, Cu - кучевые, Cb - кучево-дождевые. Подробнее классификацию облаков см. в Атласе облаков (PDF).
T - Температура воздуха - температура, измеренная на высоте 2 м над землей.
Td - Температура точки росы - температура, при понижении до которой содержащийся в воздухе водяной пар достигнет насыщения.
f - Относительная влажность воздуха - влажноcть воздуха, измеренная на высоте 2 м над землей.
Te - Эффективная температура - температура, которую ощущает одетый по сезону человек в тени. Характеристика душности погоды. При расчете учитывается влияние влажности воздуха и скорости ветра на теплоощущения человека.
Tes - Эффективная температура на солнце - температура, которую ощущает человек, с поправкой на солнечный нагрев. Характеристика знойности погоды. Зависит от высоты солнца над горизонтом, облачности и скорости ветра. Ночью, в пасмурную погоду, а также при ветре 12 м/с и более поправка равна нулю.
P - Атмосферное давление - приведенное к уровню моря атмосферное давление.
Po - Атмосферное давление - измеренное на уровне метеостанции атмосферное давление.
Tmin - Минимальная температура - минимум температуры воздуха на высоте 2 м над землей.
Tmax - Максимальная температура - максимум температуры воздуха на высоте 2 м над землей.
R - Количество осадков - Количество выпавших осадков за период времени, мм. При наведении курсора мыши на число - период времени, за который выпало указанное количество осадков.
R24 - Количество осадков - Количество выпавших осадков за 24 часа, мм.
S - Снежный покров - Высота снежного покрова, см. При наведении курсора мыши на число - состояние снежного покрова и степень покрытия местности в баллах.